Location: Bacharowice
(49.9333°N, 19.5833°E)
Time: 00:42:51
(UTC+00:00)

SOZ - Pass Details

Date: 03 October 2021
Orbit: 306 x 16685 km, 52.0° (Epoch: 24 October)

Event Time Altitude Azimuth Distance (km) Brightness Sun altitude
Exits shadow 02:43:58 19° 239° (WSW) 12,874 11.6 -20.0°
Maximum altitude 03:21:05 86° 159° (SSE) 2,746 8.7 -14.2°
Drops below altitude 10° 03:29:13 10° 71° (ENE) 3,249 10.7 -12.9°
Sets 03:30:48 0° 71° (ENE) 3,778 11.5 -12.7°
